• In India
  • List of Countries
  • For 7 days
  • Water Temperature
  • Satellite Maps
  • Weather Map
  • Weather Widgets
  • user-avatar
    Login

    Hourly Weather Berat

    Today, 24 September, Sunday

    Time Temperature Precipitation Wind Pressure Humidity
    00:00 +16°C° 0 mm 1 mps 748 mmHg 71%
    01:00 +16°C° 0 mm 1 mps 748 mmHg 71%
    02:00 +16°C° 0 mm 1 mps 747 mmHg 71%
    03:00 +15°C° 0 mm 1 mps 747 mmHg 70%
    04:00 +15°C° 0 mm 1 mps 747 mmHg 70%
    05:00 +16°C° 0 mm 1 mps 747 mmHg 66%
    06:00 +18°C° 0 mm 1 mps 747 mmHg 63%
    07:00 +19°C° 0 mm 1 mps 747 mmHg 59%
    08:00 +21°C° 0 mm 1 mps 747 mmHg 52%
    09:00 +23°C° 0 mm 1 mps 747 mmHg 45%
    10:00 +25°C° 0 mm 1 mps 747 mmHg 37%
    11:00 +26°C° 0 mm 2 mps 747 mmHg 36%
    12:00 +26°C° 0 mm 2 mps 747 mmHg 35%
    13:00 +27°C° 0 mm 3 mps 746 mmHg 34%
    14:00 +26°C° 0.1 mm 3 mps 746 mmHg 41%
    15:00 +24°C° 0.1 mm 2 mps 746 mmHg 48%
    16:00 +23°C° 0.1 mm 2 mps 746 mmHg 55%
    17:00 +21°C° 0.2 mm 2 mps 746 mmHg 61%
    18:00 +20°C° 0.2 mm 2 mps 746 mmHg 68%
    19:00 +18°C° 0.2 mm 2 mps 746 mmHg 75%
    20:00 +18°C° 0.1 mm 2 mps 746 mmHg 76%
    21:00 +18°C° 0.1 mm 2 mps 746 mmHg 76%
    22:00 +18°C° 0.1 mm 2 mps 746 mmHg 77%
    23:00 +18°C° 0.1 mm 2 mps 746 mmHg 78%

    Tomorrow, 25 September, Monday

    Time Temperature Precipitation Wind Pressure Humidity
    00:00 +19°C° 0.1 mm 1 mps 746 mmHg 78%
    01:00 +19°C° 0.1 mm 1 mps 746 mmHg 79%
    02:00 +19°C° 0 mm 1 mps 746 mmHg 80%
    03:00 +17°C° 0 mm 2 mps 745 mmHg 80%
    04:00 +17°C° 0 mm 2 mps 745 mmHg 81%
    05:00 +18°C° 0.1 mm 2 mps 745 mmHg 79%
    06:00 +18°C° 0.1 mm 2 mps 745 mmHg 77%
    07:00 +18°C° 0.1 mm 2 mps 745 mmHg 75%
    08:00 +20°C° 0.1 mm 2 mps 745 mmHg 69%
    09:00 +22°C° 0.1 mm 1 mps 746 mmHg 62%
    10:00 +23°C° 0.1 mm 1 mps 746 mmHg 55%
    11:00 +24°C° 0.3 mm 2 mps 746 mmHg 54%
    12:00 +24°C° 0.3 mm 2 mps 745 mmHg 53%
    13:00 +24°C° 0.3 mm 2 mps 745 mmHg 52%
    14:00 +24°C° 1 mm 2 mps 745 mmHg 55%
    15:00 +23°C° 1 mm 2 mps 745 mmHg 58%
    16:00 +23°C° 1 mm 2 mps 745 mmHg 61%
    17:00 +21°C° 0.7 mm 2 mps 745 mmHg 66%
    18:00 +20°C° 0.7 mm 2 mps 745 mmHg 72%
    19:00 +20°C° 0.7 mm 1 mps 746 mmHg 77%
    20:00 +19°C° 0.1 mm 1 mps 746 mmHg 78%
    21:00 +19°C° 0.1 mm 1 mps 746 mmHg 79%
    22:00 +18°C° 0.1 mm 1 mps 746 mmHg 80%
    23:00 +18°C° 0 mm 1 mps 746 mmHg 80%

    Day after tomorrow, 26 September, Tuesday

    Time Temperature Precipitation Wind Pressure Humidity
    00:00 +18°C° 0 mm 1 mps 746 mmHg 81%
    01:00 +16°C° 0 mm 1 mps 746 mmHg 81%
    02:00 +16°C° 0 mm 1 mps 746 mmHg 81%
    03:00 +16°C° 0 mm 2 mps 746 mmHg 81%
    04:00 +16°C° 0 mm 2 mps 746 mmHg 81%
    05:00 +16°C° 0 mm 2 mps 746 mmHg 78%
    06:00 +17°C° 0 mm 2 mps 746 mmHg 75%
    07:00 +18°C° 0 mm 2 mps 746 mmHg 72%
    08:00 +21°C° 0 mm 1 mps 746 mmHg 64%
    09:00 +23°C° 0 mm 1 mps 746 mmHg 56%
    10:00 +25°C° 0 mm 1 mps 746 mmHg 48%
    11:00 +25°C° 0.2 mm 1 mps 746 mmHg 47%
    12:00 +26°C° 0.2 mm 2 mps 746 mmHg 45%
    13:00 +26°C° 0.2 mm 2 mps 746 mmHg 44%
    14:00 +26°C° 0.5 mm 2 mps 745 mmHg 47%
    15:00 +25°C° 0.5 mm 2 mps 745 mmHg 50%
    16:00 +24°C° 0.5 mm 2 mps 745 mmHg 53%
    17:00 +23°C° 0.3 mm 2 mps 746 mmHg 59%
    18:00 +20°C° 0.3 mm 2 mps 746 mmHg 65%
    19:00 +20°C° 0.3 mm 1 mps 746 mmHg 71%
    20:00 +20°C° 0 mm 1 mps 747 mmHg 72%
    21:00 +19°C° 0 mm 1 mps 747 mmHg 73%
    22:00 +19°C° 0 mm 1 mps 747 mmHg 74%
    23:00 +19°C° 0 mm 1 mps 747 mmHg 74%

    27 September, Wednesday

    Time Temperature Precipitation Wind Pressure Humidity
    00:00 +18°C° 0 mm 1 mps 747 mmHg 75%
    01:00 +18°C° 0 mm 1 mps 747 mmHg 75%
    02:00 +18°C° 0 mm 1 mps 747 mmHg 75%
    03:00 +18°C° 0 mm 1 mps 747 mmHg 75%
    04:00 +16°C° 0 mm 1 mps 747 mmHg 76%
    05:00 +18°C° 0 mm 1 mps 747 mmHg 73%
    06:00 +19°C° 0 mm 1 mps 747 mmHg 71%
    07:00 +20°C° 0 mm 1 mps 747 mmHg 69%
    08:00 +22°C° 0 mm 1 mps 748 mmHg 61%
    09:00 +23°C° 0 mm 1 mps 748 mmHg 54%
    10:00 +25°C° 0 mm 1 mps 748 mmHg 47%
    11:00 +26°C° 0.1 mm 1 mps 748 mmHg 46%
    12:00 +26°C° 0.1 mm 2 mps 747 mmHg 44%
    13:00 +27°C° 0.1 mm 2 mps 747 mmHg 43%
    14:00 +26°C° 0.2 mm 2 mps 747 mmHg 46%
    15:00 +25°C° 0.2 mm 2 mps 747 mmHg 49%
    16:00 +25°C° 0.2 mm 2 mps 747 mmHg 52%
    17:00 +23°C° 0.2 mm 2 mps 747 mmHg 58%
    18:00 +21°C° 0.2 mm 2 mps 748 mmHg 64%
    19:00 +20°C° 0.2 mm 1 mps 748 mmHg 71%
    20:00 +20°C° 0 mm 1 mps 748 mmHg 71%
    21:00 +20°C° 0 mm 1 mps 748 mmHg 71%
    22:00 +19°C° 0 mm 1 mps 748 mmHg 72%
    23:00 +19°C° 0 mm 1 mps 748 mmHg 72%

    28 September, Thursday

    Time Temperature Precipitation Wind Pressure Humidity
    00:00 +19°C° 0 mm 1 mps 748 mmHg 72%
    01:00 +19°C° 0 mm 1 mps 748 mmHg 73%
    02:00 +18°C° 0 mm 1 mps 748 mmHg 73%
    03:00 +17°C° 0 mm 2 mps 748 mmHg 74%
    04:00 +17°C° 0 mm 2 mps 748 mmHg 74%
    05:00 +18°C° 0 mm 2 mps 748 mmHg 72%
    06:00 +18°C° 0 mm 2 mps 748 mmHg 70%
    07:00 +19°C° 0 mm 2 mps 748 mmHg 68%
    08:00 +20°C° 0 mm 2 mps 748 mmHg 62%
    09:00 +23°C° 0 mm 2 mps 749 mmHg 56%
    10:00 +25°C° 0 mm 2 mps 749 mmHg 49%
    11:00 +25°C° 0.1 mm 2 mps 748 mmHg 48%
    12:00 +26°C° 0.1 mm 2 mps 748 mmHg 46%
    13:00 +27°C° 0.1 mm 2 mps 748 mmHg 45%
    14:00 +26°C° 0.4 mm 2 mps 748 mmHg 48%
    15:00 +25°C° 0.4 mm 2 mps 748 mmHg 52%
    16:00 +24°C° 0.4 mm 2 mps 748 mmHg 56%
    17:00 +23°C° 0.3 mm 2 mps 748 mmHg 61%
    18:00 +21°C° 0.3 mm 2 mps 748 mmHg 66%
    19:00 +20°C° 0.3 mm 2 mps 748 mmHg 70%
    20:00 +19°C° 0 mm 2 mps 748 mmHg 72%
    21:00 +19°C° 0 mm 2 mps 748 mmHg 73%
    22:00 +18°C° 0 mm 2 mps 749 mmHg 75%
    23:00 +18°C° 0 mm 2 mps 748 mmHg 76%

    29 September, Friday

    Time Temperature Precipitation Wind Pressure Humidity
    00:00 +17°C° 0 mm 2 mps 748 mmHg 77%
    01:00 +17°C° 0 mm 2 mps 748 mmHg 78%
    02:00 +17°C° 0 mm 2 mps 748 mmHg 79%
    03:00 +16°C° 0 mm 2 mps 748 mmHg 79%
    04:00 +16°C° 0 mm 2 mps 748 mmHg 80%
    05:00 +17°C° 0 mm 2 mps 748 mmHg 78%
    06:00 +17°C° 0 mm 2 mps 748 mmHg 76%
    07:00 +18°C° 0 mm 2 mps 748 mmHg 74%
    08:00 +19°C° 0 mm 2 mps 748 mmHg 67%
    09:00 +21°C° 0 mm 2 mps 748 mmHg 59%
    10:00 +24°C° 0 mm 2 mps 748 mmHg 52%
    11:00 +24°C° 0 mm 2 mps 748 mmHg 50%
    12:00 +25°C° 0 mm 2 mps 748 mmHg 48%
    13:00 +25°C° 0 mm 2 mps 747 mmHg 46%
    14:00 +25°C° 0 mm 2 mps 747 mmHg 47%
    15:00 +24°C° 0 mm 2 mps 747 mmHg 49%
    16:00 +24°C° 0 mm 2 mps 747 mmHg 51%
    17:00 +21°C° 0.1 mm 2 mps 747 mmHg 56%
    18:00 +20°C° 0.1 mm 2 mps 747 mmHg 61%
    19:00 +18°C° 0.1 mm 2 mps 748 mmHg 66%
    20:00 +18°C° 0 mm 2 mps 748 mmHg 68%
    21:00 +17°C° 0 mm 2 mps 748 mmHg 70%
    22:00 +16°C° 0 mm 2 mps 748 mmHg 72%
    23:00 +16°C° 0 mm 2 mps 748 mmHg 73%
    Show more